Location: Bunleix
(45.8061°N, 2.1543°E)
Time: 21:00:24
(UTC+00:00)

Daily predictions for brighter satellites

Satellite Brightness Start Highest point End
(mag) Time Altitude Azimuth Time Altitude Azimuth Time Altitude Azimuth
Lacrosse 5 rocket 3.1 16:39:00 10° NW 16:41:35 17° N 16:44:14 10° NNE
ATLAS 2AS CENTAUR R/B 4.0 16:36:38 10° W 16:43:46 37° NW 16:50:42 10° NNE
USA 276 2.8 16:41:41 10° WNW 16:44:37 37° N 16:47:34 10° ENE
Cosmos-2242 4.1 16:40:58 10° SSW 16:45:07 46° WNW 16:49:16 10° N
ATLAS CENTAUR R/B 4.3 16:35:11 10° SSW 16:45:53 37° SE 16:50:46 10° ENE
SJ 16-02 1.3 16:45:50 10° NNW 16:50:14 77° ENE 16:54:36 10° SSE
Okean 3 Rocket 3.7 16:49:11 10° N 16:53:44 89° W 16:58:13 10° S
Cosmos 1500 Rocket 4.4 16:50:27 10° N 16:54:23 30° ENE 16:58:16 10° SE
Cosmos 2034 Rocket 4.3 16:48:59 10° SSE 16:54:47 45° E 17:00:37 10° NNE
CORIOLIS 4.2 16:54:22 10° SSE 16:59:38 58° ENE 17:04:58 10° N
USA 306 3.4 16:55:55 10° WSW 17:00:04 51° NNW 17:04:00 11° NE
NOSS 2-1 (C) 3.7 16:57:22 10° WSW 17:00:31 45° NW 17:03:43 10° NNE
NOSS 3-1 (A) 4.3 16:53:59 10° NNW 17:00:59 47° NE 17:09:10 10° ESE
CZ-2D R/B 4.0 16:57:47 10° SE 17:01:11 31° ENE 17:04:36 10° N
USA 234 3.6 16:56:59 10° SE 17:03:31 73° SW 17:10:03 10° NW
NOSS 3-1 (C) 4.1 16:56:58 10° NW 17:04:19 68° NE 17:12:59 10° SE
SL-08 R/B 4.0 17:01:16 10° N 17:05:56 55° WNW 17:10:30 10° SSW
Iridium 2 4.0 17:02:25 10° N 17:06:11 68° W 17:09:54 10° S
Cosmos 1842 Rocket 3.6 17:02:08 10° S 17:06:29 60° E 17:10:54 10° NNE
Cosmos 1833 Rocket 3.7 17:03:11 10° SSE 17:07:45 26° ESE 17:11:52 12° NE
NOSS 2-1 (D) 4.1 17:06:48 10° WSW 17:09:51 36° NW 17:12:59 10° NNE
Meteor 2-2 Rocket 4.4 17:03:56 10° S 17:09:59 89° E 17:16:02 10° N
PSLV R/B 3.8 17:09:31 10° SSE 17:13:03 48° ENE 17:16:38 10° N
CZ-4B R/B 3.6 17:08:35 10° SE 17:13:34 37° ENE 17:18:28 10° N
Sich 1 4.1 17:12:55 10° NNE 17:16:23 23° ENE 17:19:50 10° SE
USA 307 3.6 17:12:26 10° W 17:16:35 46° NNW 17:19:51 15° NE
Cosmos 1939 Rocket 3.0 17:12:30 10° S 17:16:38 81° WSW 17:20:46 10° NNW
ERBS 2.5 17:13:59 10° WSW 17:17:08 59° NW 17:19:27 17° NE
SMAP 3.1 17:12:45 10° SSE 17:17:24 88° WSW 17:22:06 10° NNW
ARGOS 3.8 17:13:07 10° SE 17:17:53 32° ENE 17:22:38 10° N
Cosmos 1606 3.0 17:15:10 10° SSW 17:18:53 67° W 17:22:40 10° N
H-2A R/B 2.2 17:14:21 10° SE 17:19:24 51° ENE 17:24:21 10° N
Cosmos 1898 Rocket 3.9 17:15:03 10° N 17:19:59 38° ENE 17:24:50 10° SE
MOS 1-B Rocket 4.3 17:16:20 10° NNE 17:21:51 45° E 17:27:57 10° S
COSMOS 2455 4.1 17:19:53 10° SSE 17:24:02 20° ESE 17:25:52 17° E
ATLAS CENTAUR R/B 3.1 17:21:30 10° W 17:25:08 28° NW 17:29:01 10° NNE
Cosmos 468 Rocket 4.3 17:21:17 10° S 17:26:06 43° ESE 17:30:21 13° NE
Cosmos 2221 2.7 17:21:53 10° SSW 17:26:08 73° W 17:30:26 10° N
Cosmos 44 3.1 17:23:31 10° NNW 17:28:21 77° NE 17:32:52 10° SE
COSMO-SKYMED 1 3.1 17:29:13 14° NNE 17:32:38 37° E 17:36:40 10° SSE
Cosmos 540 Rocket 4.2 17:30:26 10° SSE 17:34:52 31° E 17:37:03 22° ENE
Cosmos 2026 Rocket 4.1 17:28:52 10° N 17:34:52 50° ENE 17:40:45 10° SSE
deb Chang Zheng 4 3.7 17:31:59 10° SE 17:36:07 48° ENE 17:40:17 10° N
Cosmos 2195 Rocket 4.4 17:30:58 10° N 17:37:03 61° ENE 17:43:08 10° SSE
CZ-2C R/B 2.8 17:33:54 10° NNE 17:38:55 45° E 17:43:52 10° S
USA 308 3.9 17:34:58 10° W 17:38:56 37° NNW 17:41:12 21° NE
Okean O Rocket 1.9 17:36:10 10° SE 17:40:23 44° ENE 17:44:38 10° N
Cosmos 1500 4.1 17:37:29 10° N 17:44:46 - SE 17:40:06 28° NE
Meteor 1-25 Rocket 4.1 17:38:27 10° N 17:44:01 73° ENE 17:49:36 10° SSE
ISS -2.6 17:41:13 10° WNW 17:44:15 29° N 17:44:55 27° NNE
CZ-4C R/B 3.6 17:40:12 10° NNW 17:46:23 34° NE 17:49:48 24° ENE
Meteor 2-21 4.5 17:40:25 10° N 17:46:25 55° ENE 17:52:19 10° SSE
YAOGAN 1 4.1 17:50:22 19° NNE 17:50:22 19° NNE 17:52:02 10° N
MOS 1-B 4.4 17:46:30 10° SSE 17:52:17 83° WSW 17:58:06 10° NNW
SKYMED 3 4.5 17:53:35 18° NNE 17:56:49 66° ESE 18:01:07 10° S
CZ-4 R/B 3.8 18:00:22 11° N 18:00:22 11° N 18:00:34 10° N
Cosmos 2084 3.4 17:53:41 10° NW 17:57:57 62° NE 17:59:42 34° ESE
Cosmos 2322 Rocket 4.2 17:56:34 10° NNE 17:57:36 12° NNE 17:57:36 12° NNE
Cosmos 2369 3.9 17:53:45 10° NNW 17:59:19 48° ENE 18:02:24 25° ESE
GEOS 3 Rocket 3.5 17:56:54 15° SE 18:01:13 70° NE 18:06:24 10° NW
Cosmos 1782 2.7 17:57:38 10° S 18:01:34 59° E 18:02:36 43° NE
Cosmos 1743 Rocket 4.1 17:57:38 10° NNW 18:01:55 59° W 18:06:09 10° S
Cosmos 1697 Rocket 2.5 18:01:57 10° NNW 18:07:36 79° ENE 18:13:13 10° SSE
Cosmos 1763 Rocket 3.4 18:02:36 10° SSW 18:07:40 80° WNW 18:11:17 20° NNE
Cosmos 1937 Rocket 3.4 18:02:38 10° NNW 18:07:58 69° ENE 18:13:15 10° SSE
USA 305 4.1 18:04:46 10° WNW 18:08:31 30° N 18:09:22 27° NNE
Cosmos 841 Rocket 3.6 18:04:23 10° S 18:09:20 48° ESE 18:10:09 44° ENE
Cosmos 1980 Rocket 2.4 18:04:06 10° NNW 18:09:33 45° ENE 18:10:40 40° E
USA 267 4.1 18:08:54 22° NE 18:12:27 39° NNW 18:18:24 10° W
Cosmos 1812 4.4 18:09:36 10° SSE 18:10:59 20° SSE 18:10:59 20° SSE
SL-16 R/B 4.0 18:09:39 10° N 18:11:40 16° NNE 18:11:40 16° NNE
Meteor 2-14 Rocket 4.3 18:08:13 10° N 18:14:22 89° E 18:20:27 10° S
Spot 2 4.5 18:14:28 18° SE 18:18:08 58° ENE 18:23:12 10° N
Cosmos 2082 Rocket 2.4 18:12:56 10° S 18:18:19 45° ESE 18:18:33 45° E
SKYMED 2 3.8 18:17:49 20° N 18:20:47 70° WNW 18:25:05 10° SSW
USA 276 3.2 18:17:45 10° WNW 18:19:58 42° WNW 18:19:58 42° WNW
Lacrosse 5 rocket 3.3 18:19:04 10° NNW 18:20:53 17° N 18:20:53 17° N
Cosmos 1151 Rocket 4.1 18:18:28 10° S 18:20:53 31° SSE 18:20:53 31° SSE
COSMOS 2406 3.1 18:18:00 10° SSW 18:23:45 81° ESE 18:26:02 39° NNE
Cosmos 1933 4.3 18:20:16 10° SSW 18:24:12 48° WNW 18:27:10 17° N
Cosmos 2278 4.1 18:19:54 10° NNW 18:24:48 43° NE 18:24:48 43° NE
USA 229 DEB 4.0 18:21:33 10° NW 18:28:55 78° SW 18:36:44 10° SSE
USA 229 4.0 18:21:38 10° NW 18:29:01 79° SW 18:36:49 10° SSE
Feng Yun 1-1 Rocket 4.3 18:24:21 10° SSE 18:30:17 84° ENE 18:36:13 10° NNW
Meteor 2-21 Rocket 4.3 18:24:29 10° N 18:30:39 88° E 18:36:44 10° S
Cosmos 372 Rocket 3.8 18:29:38 10° NNW 18:34:53 75° ENE 18:35:14 72° ESE
Cosmos 2142 Rocket 4.3 18:30:56 10° S 18:37:04 86° E 18:43:17 10° N
Meteor 2-8 Rocket 4.3 18:32:03 10° S 18:38:05 62° E 18:38:41 59° ENE
USA 306 4.5 18:36:59 10° WNW 18:40:00 26° NNW 18:40:00 26° NNW
Cosmos 1833 Rocket 3.4 18:45:54 10° SW 18:51:21 51° WNW 18:53:35 33° N
Cosmos 2279 Rocket 4.1 18:49:01 10° SSW 18:55:14 74° W 19:01:20 11° N
ARGOS 4.5 18:52:58 10° SSW 18:58:02 39° W 19:03:06 10° NNW
H-2A R/B 4.4 18:55:00 10° SW 18:59:04 23° W 19:03:06 10° NW
NOSS 2-2 (D) 4.3 18:57:25 10° NW 19:02:43 86° SW 19:02:49 85° SSW
COSMOS 2455 2.9 19:03:16 10° SW 19:09:04 76° W 19:09:04 76° W
Cosmos 1655 Rocket 4.4 19:05:11 10° N 19:09:57 53° N 19:09:57 53° N
Okean O Rocket 4.1 19:13:39 10° SW 19:16:56 20° W 19:20:16 10° NW
ATLAS CENTAUR R/B 3.6 19:10:22 10° WSW 19:16:50 39° NW 19:16:50 39° NW
CZ-2C R/B 4.5 19:14:41 10° N 19:18:58 26° WNW 19:23:13 10° WSW
CZ-4C R/B 3.0 19:28:25 10° NW 19:35:01 76° WNW 19:35:01 76° WNW
BREEZE-M DEB (TANK) 4.4 19:13:47 10° SW 19:37:07 72° SSE 19:37:07 72° SSE
Cosmos 1980 Rocket 3.9 19:48:27 10° NW 19:52:30 29° W 19:52:30 29° W
Cosmos 2082 Rocket 4.1 19:57:28 10° WSW 20:00:28 25° W 20:00:28 25° W
